"Pseudo-MPEC" for P11TFCV

Created 2024 Apr 23 14:22:06 UT using Find_Orb

Click here for an explanation of pseudo-MPECs

 
 Astrometry: 
     P11TFCV* C2024 04 18YvLQh=^3x!SAstrometryLredacted;hclickWIkhereagyIbqs3F51
     P11TFCV  C2024 04 18b][QJn'PDr=\+o]8A%ojqW2pZNhSa^forysGIBNSBLK9/0.FHOLrF51
     P11TFCV  C2024 04 18tw),mc45qvM3O!4Rw+sCV2,f@RhIX:CUw)explanation#alXntEF51

Station data:
(F51) Pan-STARRS 1, Haleakala  (N20.707234 W156.255910)  US/Hawaii.
   Observers J. Bulger, T. Lowe, A. Schultz, M. Willman. Measurers K.
   Chambers, S. Chastel, T. de Boer, L. Denneau, J. Fairlamb, H. Flewelling,
   M. Huber, C.-C. Lin, E. Magnier, Y. Ramanjooloo, R. Wainscoat, R. Weryk.
   1.8-m Ritchey-Chrétien + CCD.

Orbital elements:  P11TFCV
   Perihelion 2024 May 26.25898 +/- 63.8 TT =  6:12:56 (JD 2460456.75898)
Epoch 2024 Apr 19.0 TT = JDT 2460419.5   Earth MOID: 0.0233   Ju: 0.8799
M 359.90017538 +/- 70               (J2000 ecliptic)             AutoNEOCP
n   0.00267920 +/-                  Peri.  236.92230 +/- 90
a  51.3410750 +/-                   Node    32.63373 +/- 25
e   0.9844304 +/- 0.248             Incl.  101.47898 +/- 29
P 367.87                   H 22.82  G  0.15   U 11.1  SR
q 0.79935622 +/- 0.264    Q 101.882793 +/- 20.8
From 3 observations 2024 Apr. 18 (40.7 min); mean residual 0".22
Residuals in arcseconds: 
240418 F51  .08-  .28-    240418 F51  .12+  .42+    240418 F51  .04-  .14-    

Ephemerides (geocentric):
Date (UTC) HH   RA             Dec           delta  r     elong  mag " sig PA
---- --------  ------------   ------------  ------ ------ -----  --- --------
2024 04 23 14  07 12 48.184   -40 07 03.10  .05551 1.0056  88.4 19.7  51d  95
2024 04 23 15  07 11 00.891   -39 36 48.44  .05670 1.0051  87.9 19.7  52d  95
2024 04 23 16  07 09 19.470   -39 07 42.70  .05789 1.0047  87.4 19.8  52d  95
2024 04 23 17  07 07 43.461   -38 39 42.56  .05909 1.0042  87.0 19.9  53d  95
2024 04 23 18  07 06 12.451   -38 12 44.84  .06030 1.0037  86.5 19.9  53d  94
2024 04 23 19  07 04 46.067   -37 46 46.54  .06151 1.0033  86.1 20.0  53d  94
2024 04 23 20  07 03 23.969   -37 21 44.79  .06272 1.0028  85.7 20.0  54d  94
2024 04 23 21  07 02 05.853   -36 57 36.89  .06394 1.0024  85.3 20.1  54d  94
2024 04 23 22  07 00 51.440   -36 34 20.25  .06517 1.0019  84.9 20.1  54d  94
2024 04 23 23  06 59 40.476   -36 11 52.46  .06639 1.0015  84.5 20.2  55d  94
2024 04 24 00  06 58 32.729   -35 50 11.21  .06762 1.0010  84.1 20.2  55d  94
2024 04 24 01  06 57 27.990   -35 29 14.32  .06886 1.0006  83.8 20.3  55d  94
2024 04 24 02  06 56 26.063   -35 08 59.73  .07010 1.0001  83.4 20.3  56d  93
2024 04 24 03  06 55 26.773   -34 49 25.50  .07134 0.9997  83.1 20.4  56d  93
2024 04 24 04  06 54 29.955   -34 30 29.78  .07258 0.9992  82.8 20.4  56d  93
2024 04 24 05  06 53 35.459   -34 12 10.83  .07383 0.9988  82.5 20.5  56d  93
2024 04 24 06  06 52 43.148   -33 54 27.00  .07508 0.9983  82.2 20.5  57d  93
2024 04 24 07  06 51 52.894   -33 37 16.73  .07633 0.9979  81.9 20.6  57d  93
2024 04 24 08  06 51 04.579   -33 20 38.55  .07759 0.9974  81.6 20.6  57d  93
2024 04 24 09  06 50 18.092   -33 04 31.06  .07885 0.9970  81.4 20.7  57d  93
2024 04 24 10  06 49 33.334   -32 48 52.94  .08011 0.9965  81.1 20.7  57d  93
2024 04 24 11  06 48 50.210   -32 33 42.94  .08137 0.9961  80.8 20.7  58d  93
2024 04 24 12  06 48 08.633   -32 18 59.86  .08263 0.9957  80.6 20.8  58d  92
2024 04 24 13  06 47 28.521   -32 04 42.59  .08390 0.9952  80.3 20.8  58d  92
2024 04 24 14  06 46 49.799   -31 50 50.06  .08517 0.9948  80.1 20.9  58d  92
2024 04 24 15  06 46 12.395   -31 37 21.25  .08644 0.9943  79.9 20.9  58d  92
2024 04 24 16  06 45 36.244   -31 24 15.20  .08771 0.9939  79.7 20.9  58d  92
2024 04 24 17  06 45 01.285   -31 11 31.01  .08898 0.9934  79.4 21.0  59d  92
2024 04 24 18  06 44 27.458   -30 59 07.80  .09025 0.9930  79.2 21.0  59d  92
2024 04 24 19  06 43 54.711   -30 47 04.76  .09153 0.9925  79.0 21.0  59d  92
2024 04 24 20  06 43 22.992   -30 35 21.10  .09281 0.9921  78.8 21.1  59d  92
2024 04 24 21  06 42 52.254   -30 23 56.08  .09409 0.9916  78.6 21.1  59d  92
2024 04 24 22  06 42 22.452   -30 12 48.99  .09537 0.9912  78.4 21.1  59d  92
2024 04 24 23  06 41 53.543   -30 01 59.15  .09665 0.9908  78.2 21.2  59d  92
2024 04 25 00  06 41 25.489   -29 51 25.93  .09793 0.9903  78.0 21.2  59d  91
2024 04 25 01  06 40 58.252   -29 41 08.70  .09921 .98987  77.9 21.2  60d  91
2024 04 25 02  06 40 31.796   -29 31 06.90  .10050 .98942  77.7 21.3  60d  91
2024 04 25 03  06 40 06.088   -29 21 19.95  .10179 .98898  77.5 21.3  60d  91
2024 04 25 04  06 39 41.097   -29 11 47.34  .10307 .98854  77.3 21.3  60d  91
2024 04 25 05  06 39 16.794   -29 02 28.56  .10436 .98810  77.2 21.4  60d  91
2024 04 25 06  06 38 53.149   -28 53 23.11  .10565 .98766  77.0 21.4  60d  91
2024 04 25 07  06 38 30.137   -28 44 30.54  .10694 .98721  76.9 21.4  60d  91
2024 04 25 08  06 38 07.733   -28 35 50.42  .10823 .98677  76.7 21.5  60d  91
2024 04 25 09  06 37 45.911   -28 27 22.30  .10952 .98633  76.5 21.5  60d  91
2024 04 25 10  06 37 24.651   -28 19 05.80  .11081 .98589  76.4 21.5  60d  91
2024 04 25 11  06 37 03.930   -28 11 00.53  .11211 .98545  76.2 21.5  60d  91
2024 04 25 12  06 36 43.728   -28 03 06.11  .11340 .98501  76.1 21.6  60d  91
2024 04 25 13  06 36 24.025   -27 55 22.20  .11469 .98457  76.0 21.6  61d  91